Home   Weather   Louisville   Past weeks
Flag for USA

Past Weather in Louisville, Kentucky, USA — Yesterday and Last 2 Weeks

Now
79 °F

Passing clouds.


Feels Like: 82 °F
Forecast: 95 / 79 °F
Wind: 6 mph from Southwest

Location: Standiford Field

Current Time: Jul 19, 2019 at 8:42:38 am

Latest Report: Jul 19, 2019 at 7:56 am


Visibility: 10 mi

Pressure: 29.98 "Hg

Humidity: 79%

Dew Point: 72 °F

Location of LouisvilleLocation

Past Weather in Louisville — Graph

°F

Louisville Temperature Yesterday

Maximum temperature yesterday: 94 °F (at 3:56 pm)
Minimum temperature yesterday: 76 °F (at 5:56 am)
Average temperature yesterday: 83 °F

High & Low Weather Summary for the Past Weeks

 TemperatureHumidityPressure
High94 °F (Jul 18, 3:56 pm)91% (Jul 17, 7:56 am)30.16 "Hg (Jul 17, 7:56 am)
Low68 °F (Jul 13, 6:56 am)31% (Jul 12, 2:56 pm)29.81 "Hg (Jul 11, 5:56 pm)
Average82 °F66%29.97 "Hg
* Reported Jul 4 6:56 am — Jul 19 6:56 am, Louisville. Weather by CustomWeather, © 2019

Note: Actual official high and low records may vary slightly from our data, if they occured in-between our weather recording intervals... More about our weather records

Advertising

Louisville Weather History for the Previous 24 Hours

Scroll right to see more
 ConditionsComfort  
Time TempWeatherWind HumidityBarometerVisibility
6:56 am
Fri, Jul 19
78 °FPassing clouds.9 mph82%29.97 "Hg10 mi
5:56 am79 °FPassing clouds.8 mph79%29.96 "Hg10 mi
4:56 am80 °FPassing clouds.8 mph79%29.95 "Hg10 mi
3:56 am80 °FPassing clouds.7 mph81%29.94 "Hg10 mi
2:56 am81 °FPassing clouds.6 mph79%29.94 "Hg10 mi
1:56 am81 °FPassing clouds.7 mph79%29.94 "Hg10 mi
12:56 am82 °FPassing clouds.8 mph77%29.94 "Hg10 mi
11:56 pm
Thu, Jul 18
83 °FPassing clouds.9 mph77%29.94 "Hg10 mi
10:56 pm84 °FClear.10 mph74%29.93 "Hg10 mi
9:56 pm86 °FPassing clouds.9 mph70%29.92 "Hg10 mi
8:56 pm88 °FPassing clouds.9 mph65%29.91 "Hg10 mi
7:56 pm90 °FScattered clouds.12 mph57%29.90 "Hg10 mi
6:56 pm92 °FScattered clouds.12 mph52%29.90 "Hg10 mi
5:56 pm94 °FScattered clouds.8 mph48%29.91 "Hg10 mi
4:56 pm94 °FScattered clouds.5 mph46%29.91 "Hg10 mi
3:56 pm94 °FPartly sunny.7 mph48%29.93 "Hg10 mi
2:56 pm92 °FScattered clouds.3 mph51%29.94 "Hg10 mi
1:56 pm91 °FScattered clouds.8 mph54%29.97 "Hg10 mi
12:56 pm88 °FScattered clouds.6 mph61%29.98 "Hg10 mi
11:56 am84 °FBroken clouds.5 mph70%29.97 "Hg10 mi
11:01 am82 °FBroken clouds.5 mph72%29.99 "Hg10 mi
9:56 am78 °FOvercast.7 mph82%29.98 "Hg10 mi
8:56 am78 °FOvercast.9 mph82%29.98 "Hg10 mi
8:35 am79 °FOvercast.12 mph82%29.99 "Hg9 mi
Weather by CustomWeather, © 2019

See weather overview